Regional Weather Roundup
Issued by NWS Upton, NY

Current Version | Previous Version | Graphics & Text | Print | Product List | Glossary On
Versions: 1 2 3 4 5 6 7 8 9 10 11 12 13 14 15 16 17 18 19 20 21 22 23 24 25 26 27
000
ASUS41 KOKX 240705
RWROKX
REGIONAL WEATHER ROUNDUP
NATIONAL WEATHER SERVICE NEW YORK NY
300 AM EDT FRI OCT 24 2014

NOTE: "FAIR" INDICATES FEW OR NO CLOUDS BELOW 12,000 FEET WITH NO
SIGNIFICANT WEATHER AND/OR OBSTRUCTIONS TO VISIBILITY.

NYZ071-072-176-178-NJZ106-104-240800-
NEW YORK CITY METRO AREA


CITY           SKY/WX    TMP DP  RH WIND       PRES   REMARKS
CENTRAL PARK   CLOUDY    52  42  69 MISG      29.80R
LAGUARDIA APRT CLOUDY    52  44  74 NW12      29.76S
KENNEDY INTL   CLOUDY    53  44  71 NW15      29.77R
NEWARK/LIBERTY CLOUDY    52  43  71 NW9       29.79R
BRNX BOT. GARD   N/A     50  43  76 NW13      29.78R
TETERBORO      CLOUDY    52  42  69 NW5       29.77R
$$

NYZ177-179-078>081-240800-
LONG ISLAND NEW YORK

CITY           SKY/WX    TMP DP  RH WIND       PRES   REMARKS
FARMINGDALE    CLOUDY    52  45  77 N13       29.74S
ISLIP          CLOUDY    51  46  83 NW14      29.71R
SHIRLEY        CLOUDY    51  47  86 N14G23    29.72R
WESTHAMPTON    CLOUDY    52  47  83 NW10G20   29.72R
MONTAUK POINT    N/A     54  49  83 NW13G22   29.68R
$$

NYZ052-065-067-240800-
HUDSON VALLEY

CITY           SKY/WX    TMP DP  RH WIND       PRES   REMARKS
WHITE PLAINS   PTCLDY    49  44  83 NW15      29.74S
NEWBURGH       NOT AVBL
MONTGOMERY     MOCLDY    48  42  80 NW8       29.78F
POUGHKEEPSIE   CLOUDY    50  45  83 N3        29.79S
ALBANY         LGT RAIN  46  44  93 N5        29.83F FOG
$$

NJZ001-105-106-008-010-013-015-019>022-104-240800-
NEW JERSEY

CITY           SKY/WX    TMP DP  RH WIND       PRES   REMARKS
NEWARK/LIBERTY CLOUDY    52  43  71 NW9       29.79R
TETERBORO      CLOUDY    52  42  69 NW5       29.77R
CALDWELL       CLOUDY    50  41  71 NW6       29.79S
MORRISTOWN     CLOUDY    52  43  71 NW3       29.80R
SOMERVILLE     CLOUDY    52  42  69 NW10      29.79R
SUSSEX         CLOUDY    52  42  69 N6        29.80F
ANDOVER          N/A     49  42  77 N8        29.81S
TRENTON        CLOUDY    51  43  74 NW8       29.80S
MILLVILLE      MOCLDY    51  45  79 W6        29.82S
ATLANTIC CITY  PTCLDY    48  44  86 W7        29.81R
WRIGHTSTOWN    MOCLDY    51  44  78 NW10      29.78S
TOMS RIVER     CLOUDY    52  45  76 N8        29.79S
BELMAR         CLOUDY    52  41  66 NW13      29.78S
$$

PAZ047>061-062-071-240800-
EASTERN PENNSYLVANIA

CITY           SKY/WX    TMP DP  RH WIND       PRES   REMARKS
PHILADELPHIA   MOCLDY    55  44  66 NW12      29.83S
ALLENTOWN      CLOUDY    54  43  66 NW14G20   29.83S
SCRANTON       CLOUDY    51  43  74 N8        29.86S
$$

CTZ002-004>006-009-010-012-RIZ004-006-007-MAZ004-011-015-240800-
SOUTHERN NEW ENGLAND
 IN CT

CITY           SKY/WX    TMP DP  RH WIND       PRES   REMARKS
BRADLEY INTL   CLOUDY    50  46  86 NW10      29.72S
HARTFORD       LGT RAIN  51  46  83 VRB6      29.72S
DANBURY        CLOUDY    48  43  82 N8        29.77S
WTRBRY/OXFORD  CLOUDY    46  39  76 N16       29.74S
BRIDGEPORT     CLOUDY    51  45  79 N13G23    29.72S
MERIDEN        LGT RAIN  50  44  80 NW12G21   29.72S
NEW HAVEN      CLOUDY    52  45  77 VRB7      29.71S
CHESTER        PTSUNNY   50  46  87 N14       29.69F
GROTON         CLOUDY    50  48  93 NW13      29.66S
WILLIMANTIC    CLOUDY    51  47  86 N7        29.70S

 IN RI

CITY           SKY/WX    TMP DP  RH WIND       PRES   REMARKS
PROVIDENCE     CLOUDY    51  48  89 N13       29.66S
BLOCK ISLAND   CLOUDY    52  46  82 N13G21    29.65R
WESTERLY       MOCLDY    52  48  86 N9        29.66F

 IN MA

CITY           SKY/WX    TMP DP  RH WIND       PRES   REMARKS
BOSTON         CLOUDY    48  48 100 NW13G18   29.66S
WORCESTER      LGT RAIN  48  46  93 N10       29.68F FOG
WESTFIELD      LGT RAIN  50  45  83 NW12      29.73S
PROVINCETOWN   CLOUDY    52   0  11 N18G31    29.59R
NANTUCKET      LGT RAIN  55  53  93 N21G29    29.54R FOG
$$

ANZ330-335-338-340-345-350-353-355-240800-
COASTAL MARINE OBSERVATIONS


STATION/POSITION TIME  SKY/WX   TEMP    WIND        PRES    VSBY  WAVE
                                AIR SEA DIR/SP/G                  HT/PER
                 (UTC)          (F)     (DEG/KT/KT) (MB)    (MI)  (FT/S)
NY HARB ENTRANCE NOT AVBL
4S FIRE IS       0700               63                N/A           3/ 9
20S FIRE ISLAND  0700            55 63  340/ 23/ 27 1005.9          6/ 5
23SW MTP         0700                                 N/A           6/ 5
HUDSON CANYON    0700            57 66  330/ 21/ 27 1004.9         10/ 8
EXECUTION ROCKS  0700            54 62  340/ 16/ 21   N/A
WESTERN LI SOUND 0700            54     340/ 17/ 23   N/A           2/ 3
CENTRAL LI SOUND 0600            53 63  320/ 19/ 21   N/A           3/ 3
EASTERN LI SOUND 0600            54 63  340/ 14/ 19   N/A
ROBBINS REEF     0700            52     320/ 12/ 14 1007.3
$$


>>>>>>>>>>>>>>>>>>>>>>>>>>>> KEY <<<<<<<<<<<<<<<<<<<<<<<<<<<
>                                                          <
>     SKY/WX - SKY CONDITION/PRESENT WEATHER               <
>     TMP    - TEMPERATURE IN FAHRENHEIT                   <
>     DP     - DEWPOINT IN FAHRENHEIT                      <
>     RH     - RELATIVE HUMIDITY IN PERCENT                <
>     WIND   - DIRECTION AND SPEED IN MPH                  <
>     PRES   - MEAN SEA LEVEL PRESSURE IN INCHES OF HG     <
>     WCI    - WIND CHILL INDEX                            <
>     VSB    - VISIBILITY IN MILES                         <
>     HX     - HEAT INDEX                                  <
>     TC     - TEMPERATURE IN CELSIUS                      <
>     VRB    - VARIABLE WIND DIRECTION                     <
>                                                          <
>>>>>>>>>>>>>>>>>>>>>>>>>>>> KEY <<<<<<<<<<<<<<<<<<<<<<<<<<<





USA.gov is the U.S. government's official web portal to all federal, state and local government web resources and services.